This is the latest recevied weather packets stored in our database for station/object N6ZHV-13. If no packets are shown the sender has not sent any weather packets the latest 10 day(s).
| Time | Temp. | Humidity | Pressure | Rain* | Wind** | Luminosity | Snow |
|---|---|---|---|---|---|---|---|
| 1788051131 | 30.56° C | 44% | 1005.5 hPa | 0 mm | - | - | - |
| 1788050831 | 30.56° C | 44% | 1005.4 hPa | 0 mm | - | - | - |
| 1788050531 | 30.56° C | 39% | 1005.4 hPa | 0 mm | - | - | - |
| 1788050231 | 31.11° C | 42% | 1005.5 hPa | 0 mm | - | - | - |
| 1788049931 | 31.11° C | 40% | 1005.5 hPa | 0 mm | - | - | - |
| 1788049631 | 32.22° C | 40% | 1005.5 hPa | 0 mm | - | - | - |
| 1788049331 | 32.22° C | 41% | 1005.5 hPa | 0 mm | - | - | - |
| 1788049031 | 31.67° C | 38% | 1005.5 hPa | 0 mm | - | - | - |
| 1788048731 | 31.67° C | 39% | 1005.4 hPa | 0 mm | - | - | - |
| 1788048431 | 32.22° C | 39% | 1005.4 hPa | 0 mm | - | - | - |
| 1788048131 | 32.78° C | 36% | 1005.4 hPa | 0 mm | - | - | - |
| 1788047831 | 32.78° C | 35% | 1005.3 hPa | 0 mm | - | - | - |
| 1788047531 | 32.78° C | 35% | 1005.4 hPa | 0 mm | - | - | - |
| 1788047231 | 33.33° C | 36% | 1005.4 hPa | 0 mm | - | - | - |
| 1788046931 | 32.78° C | 35% | 1005.5 hPa | 0 mm | - | - | - |
| 1788046631 | 32.78° C | 35% | 1005.5 hPa | 0 mm | - | - | - |
| 1788046331 | 32.78° C | 35% | 1005.5 hPa | 0 mm | - | - | - |
| 1788046031 | 32.78° C | 36% | 1005.5 hPa | 0 mm | - | - | - |
| 1788045731 | 32.78° C | 36% | 1005.5 hPa | 0 mm | - | - | - |
| 1788045437 | 32.78° C | 38% | 1005.5 hPa | 0 mm | - | - | - |
| 1788045131 | 32.78° C | 37% | 1005.6 hPa | 0 mm | - | - | - |
| 1788044831 | 32.78° C | 37% | 1005.7 hPa | 0 mm | - | - | - |
| 1788044531 | 32.78° C | 38% | 1005.8 hPa | 0 mm | - | - | - |
| 1788044231 | 32.78° C | 38% | 1005.8 hPa | 0 mm | - | - | - |
| 1788043931 | 32.78° C | 39% | 1005.8 hPa | 0 mm | - | - | - |
* Rain latest hour (hover to see other rain measurements)
** Current wind speed in m/s (hover to see current wind gust speed)